Location: Haut �vry
(47.4292°N, 3.0132°E)
Time: 20:41:06
(UTC+00:00)

Daily predictions for brighter satellites

Satellite Brightness Start Highest point End
(mag) Time Altitude Azimuth Time Altitude Azimuth Time Altitude Azimuth
NOSS 3-2 (C) 4.3 17:58:46 10° NW 18:05:57 56° NE 18:14:08 10° ESE
Cosmos 1844 4.4 18:05:25 10° SSE 18:10:18 30° ESE 18:15:10 10° NE
ISS -3.5 18:07:12 10° WSW 18:10:34 70° NNW 18:13:57 10° ENE
USA 186 3.8 18:11:50 10° E 18:13:27 13° ENE 18:15:03 10° NE
Cosmos 1300 Rocket 3.8 18:15:21 10° SSE 18:19:34 46° E 18:23:50 10° NNE
Okean 1 Rocket 4.4 18:19:52 10° SE 18:23:00 19° E 18:26:10 10° NE
Sich 1 Rocket 3.6 18:19:21 10° S 18:23:52 82° E 18:28:27 10° N
NOSS 2-2 (E) 4.1 18:21:08 10° WSW 18:24:36 50° NW 18:28:36 10° NNE
CENTAUR R/B 3.3 18:17:11 10° NW 18:25:04 65° NE 18:33:47 10° SE
Cosmos 2298 Rocket 4.1 18:20:44 10° S 18:25:57 58° ESE 18:31:11 10° NNE
Cosmos 1833 Rocket 4.2 18:22:13 10° N 18:26:19 20° NE 18:30:12 11° E
Cosmos 1975 4.4 18:23:19 10° SSW 18:27:11 41° WNW 18:31:04 10° N
Iridium 4 Rocket 4.3 18:23:09 10° SSW 18:28:17 61° W 18:33:54 10° N
CSL-04 Debris 4.1 18:25:03 10° SSE 18:30:24 73° ENE 18:35:48 10° NNW
Helios 1A Rocket 4.4 18:28:21 10° S 18:32:16 42° W 18:36:14 10° NNW
CSL-04 Rocket 3.7 18:26:57 10° SSE 18:32:22 73° ENE 18:37:53 10° NNW
ATLAS 2AS CENTAUR R/B 3.7 18:27:16 10° S 18:34:00 32° ESE 18:40:45 10° NE
Okean 2 Rocket 3.1 18:29:38 10° S 18:34:05 67° E 18:38:31 10° NNE
Cosmos 1025 Rocket 3.0 18:29:58 10° N 18:34:22 69° E 18:38:45 10° SSE
NOSS 2-2 (D) 4.0 18:31:01 10° WSW 18:34:27 51° NW 18:38:24 10° NNE
YAOGAN 1 2.8 18:30:39 10° S 18:34:58 75° WSW 18:39:19 10° NNW
ATLAS 3B R/B 3.6 18:31:00 10° NNW 18:37:09 35° NNE 18:42:35 14° E
SWAS 4.4 18:35:49 10° NNW 18:40:07 69° ENE 18:44:22 10° SE
Abrixas rocket 1.8 18:37:31 10° WNW 18:40:22 79° SSW 18:42:11 20° ESE
Cosmos 1513 Rocket 4.4 18:35:24 10° S 18:41:38 80° E 18:47:47 10° N
CREW DRAGON DEMO-1 DEB 2.7 18:39:17 10° WNW 18:42:19 82° NNE 18:44:16 20° ESE
Cosmos 1536 Rocket 3.6 18:39:42 10° N 18:44:09 66° ENE 18:48:36 10° SSE
Cosmos 1125 Rocket 3.6 18:41:26 10° S 18:46:35 55° ESE 18:51:47 10° NNE
SJ-6B 3.7 18:48:31 19° ESE 18:50:19 28° ENE 18:53:36 10° N
CZ-4 R/B 2.9 18:48:40 10° SSW 18:52:38 40° W 18:56:35 10° NNW
Cosmos 2150 Rocket 4.1 18:48:05 10° SSW 18:53:30 89° ESE 18:59:00 10° NNE
SJ-11-01 4.4 18:48:54 10° SSE 18:53:37 83° WSW 18:58:21 10° NNW
USA 238 DEB 4.1 18:47:14 10° NW 18:54:26 73° SW 19:01:55 10° SSE
USA 238 4.1 18:47:20 10° NW 18:54:33 74° SW 19:02:01 10° SSE
CZ-2C R/B 3.5 18:49:21 10° S 18:54:41 70° WSW 19:00:22 10° NNW
Cosmos 1464 Rocket 4.0 18:48:51 10° S 18:54:59 86° W 19:01:14 10° N
Okean-O 4.4 18:52:30 10° SSW 18:56:31 34° W 19:00:36 10° NNW
Cosmos 1674 2.7 18:52:43 10° N 18:56:32 58° ENE 19:00:17 10° SSE
Cosmos 2026 Rocket 4.5 18:51:13 10° N 18:57:12 40° ENE 19:02:17 14° SE
Cosmos 2285 Rocket 4.1 18:51:11 10° S 18:57:18 56° ESE 19:03:30 10° NNE
Cosmos 1092 Rocket 4.1 18:51:29 10° N 18:57:28 51° ENE 19:03:30 10° SSE
MOS 1 Rocket 3.0 18:58:46 10° NNE 19:03:10 79° ESE 19:07:27 10° S
FREGAT/IRIS 3.6 19:04:41 24° NE 19:04:41 24° NE 19:06:20 10° N
TSX-5 4.3 19:04:51 10° S 19:08:27 40° ESE 19:12:59 10° NE
ARGOS 3.2 19:04:54 10° SSE 19:10:16 85° WSW 19:15:42 10° NNW
CZ-2C R/B 2.9 19:07:59 10° NNE 19:13:25 49° E 19:18:51 10° S
Cosmos 1340 Rocket 3.9 19:15:11 27° ENE 19:15:11 27° ENE 19:17:49 10° NNE
Cosmos 1733 3.4 19:13:48 21° SSE 19:15:59 45° E 19:19:39 10° NNE
Cosmos 2151 Rocket 4.1 19:12:21 10° SSW 19:16:46 63° WNW 19:21:16 10° N
MOS 1 4.3 19:13:05 16° SSE 19:17:42 64° ENE 19:23:21 10° N
Lacrosse 5 rocket 3.2 19:14:42 10° NW 19:18:22 25° N 19:20:43 17° NE
Cosmos 2082 Rocket 3.3 19:14:55 10° N 19:19:38 27° NE 19:21:17 23° ENE
BREEZE-M DEB (TANK) 3.8 19:19:16 10° W 19:22:27 44° SSW 19:27:36 19° SE
BREEZE-M R/B 3.8 19:12:16 10° WSW 19:23:03 80° SSE 19:24:25 36° E
DMSP B5D2-2 4.2 19:18:06 10° NNE 19:23:15 50° E 19:28:23 10° S
Cosmos 494 Rocket 4.4 19:19:33 10° NNW 19:24:46 65° WSW 19:29:53 10° S
Meteor 1-15 Rocket 4.3 19:21:48 10° SSW 19:27:27 83° W 19:33:16 10° N
Cosmos 1805 3.1 19:23:57 10° S 19:27:52 89° E 19:31:49 10° N
OBJECT-B 1.8 19:28:48 33° NE 19:28:48 33° NE 19:31:05 10° N
Milstar 3 Cent rocket 4.3 19:28:59 10° SSW 19:31:13 12° S 19:32:39 11° S
Ariane Rocket 2.9 19:28:06 16° SSE 19:32:08 89° W 19:37:15 10° NNW
SL-08 RB Rocket 3.9 19:27:52 11° S 19:32:12 71° WSW 19:36:45 10° NNW
H-2A R/B 3.3 19:29:01 10° SSW 19:33:43 41° W 19:38:34 10° NNW
Cosmos 1269 Rocket 4.0 19:31:25 10° NNW 19:36:46 89° WSW 19:39:33 29° SSE
Cosmos 1626 1.9 19:38:07 10° N 19:41:51 82° ENE 19:42:02 78° SE
Okean 1-7 Rocket 4.2 19:37:49 10° N 19:41:51 40° ENE 19:41:51 40° ENE
MetOp-A 4.1 19:40:20 24° SSE 19:43:40 89° WSW 19:49:04 10° NNW
USA 186 2.9 19:42:34 29° SSW 19:43:45 43° W 19:46:56 10° NNW
COSMOS 2406 3.1 19:40:17 10° NNW 19:45:59 77° ENE 19:47:55 43° SE
Cosmos 1844 Rocket 3.8 19:41:15 10° SW 19:46:34 45° NW 19:51:57 10° NNE
ISS -2.7 19:44:31 10° WNW 19:47:43 38° N 19:47:47 38° N
Cosmos 2278 Rocket 2.5 19:45:11 10° S 19:51:32 43° E 19:55:58 10° NE
Lacrosse 4 Rocket 2.3 19:49:39 10° NNW 19:52:52 35° NNE 19:52:52 35° NNE
Meteor 1-22 Rocket 4.3 19:49:23 10° S 19:55:19 86° E 20:01:27 10° NNE
Meteor 2-5 Rocket 4.1 19:50:38 10° NNW 19:56:16 64° W 20:00:46 17° S
Cosmos 909 Rocket 4.4 19:52:09 10° NNW 19:58:33 50° NE 19:59:55 43° E
Exosat Rocket 4.2 19:53:24 10° SW 19:58:35 53° WNW 20:03:31 10° NNE
Meteor 1-24 Rocket 3.8 19:53:01 10° NNW 19:58:37 78° W 20:01:37 29° S
Okean 1 Rocket 4.1 19:56:13 10° SSW 20:00:33 47° WNW 20:04:54 10° N
Cosmos 2266 Rocket 4.5 19:55:10 10° N 20:00:33 38° ENE 20:00:33 38° ENE
NOSS 3-4 (A) 3.4 19:55:44 10° SW 20:01:40 85° NW 20:08:04 10° NE
NOSS 3-4 (C) 3.3 19:55:51 10° SW 20:01:46 86° NW 20:08:11 10° NE
SL-14 R/B 3.5 19:57:51 10° NNW 20:01:48 68° W 20:01:55 67° WSW
Meteor 2-19 Rocket 4.4 19:56:43 10° N 20:02:47 63° ENE 20:03:47 55° ESE
Resurs 01 Rocket 1.9 20:03:26 55° NE 20:03:26 55° NE 20:07:16 10° N
Cosmos 1833 Rocket 2.6 20:05:23 10° NNW 20:11:05 88° ENE 20:11:54 67° SSE
Cosmos 2251 Rocket 3.7 20:08:41 10° NNW 20:13:44 57° NE 20:13:44 57° NE
CENTAUR R/B 4.1 20:08:11 10° NW 20:15:46 42° WSW 20:22:00 17° S
ARIANE 5 R/B 3.8 20:20:05 32° NNE 20:20:05 32° NNE 20:22:37 10° N
SPOT 3 Rocket 3.6 20:20:50 62° SSW 20:21:31 71° WSW 20:26:41 10° NNW
Cosmos 1634 Rocket 4.5 20:17:46 10° SSW 20:23:50 58° WNW 20:29:59 10° N
ATLAS 2AS CENTAUR R/B 3.1 20:16:31 10° SW 20:24:29 76° NW 20:32:23 10° NE
Resurs 1-3 4.2 20:26:18 52° W 20:26:18 52° W 20:30:34 10° NNW
ATLAS 3B R/B 2.7 20:21:36 10° NW 20:28:29 78° SW 20:29:50 60° SSE
Cosmos 1892 Rocket 4.3 20:24:38 10° NNW 20:28:35 49° W 20:28:35 49° W
Meteor 1-21 Rocket 4.4 20:28:12 10° N 20:33:15 61° NE 20:33:15 61° NE
Cosmos 1655 Rocket 3.8 20:31:15 10° N 20:37:34 88° E 20:37:50 83° SSE
Lacrosse 5 rocket 3.3 20:53:55 10° NW 20:56:20 30° NNW 20:56:20 30° NNW
OBJECT-B 4.3 21:02:00 10° WNW 21:02:00 10° WNW 21:02:06 10° WNW
Cosmos 2098 Rocket 4.2 20:55:20 10° NNW 21:01:45 61° W 21:01:45 61° W
Cosmos 2082 Rocket 2.8 20:58:36 10° NNW 21:03:08 53° WNW 21:03:08 53° WNW
Terra 4.0 21:21:45 20° N 21:21:45 20° N 21:23:17 10° N
Lacrosse 4 Rocket 4.4 21:28:36 10° NW 21:29:10 13° WNW 21:29:10 13° WNW
Cosmos 2278 Rocket 3.7 21:33:01 27° W 21:34:49 33° NW 21:39:56 10° NNE
Resurs 01 Rocket 4.4 21:41:00 14° WNW 21:41:00 14° WNW 21:42:28 10° NW
ATLAS 2AS CENTAUR R/B 4.5 22:09:48 10° W 22:16:45 31° NNW 22:23:30 10° NE
